sat.trackr.live / text

‹ back to catalog

STARLINK-35980

NORAD 66600 · 2025-270N

PAYLOAD ACTIVE UNKNOWN

§ Identity

Operator
Country
US
Launch date
2025-11-22
Launch site
AFETR
Launch vehicle
Mass (kg)
RCS (m²)

Purposes: comms

External: N2YO · Heavens-Above · Gunter

§ Orbital elements

Epoch: 2026-05-24T22:30:52.200288Z

Period
94.27 min
Inclination
43.0025°
Eccentricity
0.0001412
Mean motion
15.27584312 rev/d
Perigee alt
482.1 km
Apogee alt
484.0 km
Semi-major
6,861.2 km
B*
7.2293e-4
RAAN
345.8668°
Arg perigee
267.2840°
Mean anomaly
92.7850°
Rev number
2,926

§ Raw data

STARLINK-359801 66600U 25270N   26144.93810417  .00019687  00000+0  72293-3 0  99902 66600  43.0025 345.8668 0001412 267.2840  92.7850 15.27584312 29269

JSON: /api/v1/satellites/66600 · /tle

For live sub-satellite position, see the globe view (requires WebGL).

§ Visibility from observer

Set your observer location to see the next 7 days of passes ≥ 10°. The values pass through the URL so the page stays shareable.

No JS? Fill the form by hand. The geolocation button needs JavaScript.